This is the latest recevied weather packets stored in our database for station/object KI6AOK. If no packets are shown the sender has not sent any weather packets the latest 10 day(s).
| Time | Temp. | Humidity | Pressure | Rain* | Wind** | Luminosity | Snow |
|---|---|---|---|---|---|---|---|
| 1777754097 | 24.44° C | 58% | 1012.2 hPa | 0 mm | - | 790 W/m² | - |
| 1777753794 | 25° C | 56% | 1012.2 hPa | 0 mm | - | 778 W/m² | - |
| 1777753490 | 24.44° C | 58% | 1012.2 hPa | 0 mm | - | 693 W/m² | - |
| 1777753189 | 23.89° C | 57% | 1012.2 hPa | 0 mm | - | 681 W/m² | - |
| 1777752884 | 23.89° C | 59% | 1012.3 hPa | 0 mm | - | 900 W/m² | - |
| 1777752581 | 23.89° C | 58% | 1012.4 hPa | 0 mm | - | 887 W/m² | - |
| 1777752277 | 23.89° C | 58% | 1012.7 hPa | 0 mm | - | 636 W/m² | - |
| 1777751975 | 24.44° C | 57% | 1012.8 hPa | 0 mm | - | 765 W/m² | - |
| 1777751672 | 25° C | 56% | 1012.6 hPa | 0 mm | - | 741 W/m² | - |
| 1777751368 | 24.44° C | 54% | 1012.7 hPa | 0 mm | - | 659 W/m² | - |
| 1777751065 | 24.44° C | 54% | 1012.6 hPa | 0 mm | - | 705 W/m² | - |
| 1777750761 | 23.89° C | 55% | 1012.6 hPa | 0 mm | - | 693 W/m² | - |
| 1777750458 | 23.89° C | 55% | 1012.9 hPa | 0 mm | - | 916 W/m² | - |
| 1777750153 | 22.78° C | 58% | 1013.1 hPa | 0 mm | - | 827 W/m² | - |
| 1777749851 | 23.33° C | 58% | 1013.2 hPa | 0 mm | - | 743 W/m² | - |
| 1777749548 | 22.78° C | 59% | 1013.1 hPa | 0 mm | - | 861 W/m² | - |
| 1777749246 | 22.78° C | 58% | 1013.2 hPa | 0 mm | - | 813 W/m² | - |
| 1777748943 | 23.33° C | 57% | 1013.5 hPa | 0 mm | - | 807 W/m² | - |
| 1777748640 | 23.33° C | 58% | 1013.5 hPa | 0 mm | - | 801 W/m² | - |
| 1777748336 | 22.22° C | 61% | 1013.4 hPa | 0 mm | - | 884 W/m² | - |
| 1777748031 | 21.67° C | 64% | 1013.4 hPa | 0 mm | - | 821 W/m² | - |
| 1777747729 | 21.67° C | 63% | 1013.6 hPa | 0 mm | - | 836 W/m² | - |
| 1777747424 | 21.67° C | 64% | 1013.6 hPa | 0 mm | - | 763 W/m² | - |
| 1777747121 | 21.11° C | 64% | 1013.8 hPa | 0 mm | - | 732 W/m² | - |
| 1777746817 | 21.11° C | 66% | 1014 hPa | 0 mm | - | 793 W/m² | - |
* Rain latest hour (hover to see other rain measurements)
** Current wind speed in m/s (hover to see current wind gust speed)